This demonstration page uses our WeatherBlox Daily Observations layout. Learn more.

Left ArrowRight Arrow

40.92945, -100.16068

Hourly Observations for February 25, 2018

Temp ( °F °C ) Dew Point ( °F °C ) Humidity (%) Winds ( mph kmh ) Pressure ( in mb ) Visibility ( mi km ) Precip ( " mm )
12:15 am 00:15 Clear 23 -4.9 16 -8.9 74 74 NW 6 9 30.00 1016 10 16 N/A
12:35 am 00:35 Clear 20 -6.4 15 -9.4 80 80 NNW 6 9 30.06 1018 10 16 N/A
12:55 am 00:55 Clear 19 -7.1 14 -10 80 80 NNW 6 9 30.03 1017 10 16 N/A
1:15 am 01:15 Clear 18 -7.6 13 -10.4 81 81 W 6 9 30.06 1018 10 16 N/A
1:35 am 01:35 Clear 19 -7.5 14 -10.2 81 81 W 5 7 30.06 1018 10 16 N/A
1:55 am 01:55 Clear 19 -7.5 14 -10 83 83 W 5 7 30.06 1018 10 16 N/A
2:15 am 02:15 Clear 19 -7.2 14 -10 81 81 WSW 5 7 30.06 1018 10 16 N/A
2:35 am 02:35 Clear 19 -7.1 14 -10.1 79 79 W 5 7 30.06 1018 10 16 N/A
2:55 am 02:55 Clear 17 -8.3 13 -10.7 83 83 NW 5 7 30.06 1018 10 16 N/A
3:15 am 03:15 Clear 17 -8.4 12 -10.9 82 82 NW 3 6 30.06 1018 10 16 N/A
3:35 am 03:35 Clear 16 -8.7 12 -11.2 82 82 N N/A 30.06 1018 10 16 N/A
3:55 am 03:55 Clear 16 -8.7 12 -11 84 84 N N/A 30.06 1018 10 16 N/A
4:15 am 04:15 Clear 17 -8.5 12 -11.1 82 82 NNW 3 6 30.06 1018 10 16 N/A
4:35 am 04:35 Clear 16 -8.8 11 -11.4 82 82 N N/A 30.06 1018 10 16 N/A
4:55 am 04:55 Clear 17 -8.6 11 -11.6 79 79 NW 3 6 30.06 1018 10 16 N/A
5:15 am 05:15 Clear 16 -8.8 11 -11.9 79 79 WNW 3 6 30.06 1018 10 16 N/A
5:35 am 05:35 Clear 16 -9.1 11 -11.6 82 82 W 3 6 30.09 1019 10 16 N/A
5:55 am 05:55 Clear 16 -9 11 -11.6 82 82 W 3 6 30.06 1018 10 16 N/A
6:15 am 06:15 Clear 16 -9.1 11 -11.6 82 82 N N/A 30.12 1020 10 16 N/A
6:35 am 06:35 Clear 15 -9.2 10 -12.1 80 80 N 3 6 30.12 1020 10 16 N/A
6:55 am 06:55 Clear 15 -9.6 10 -12.1 82 82 N N/A 30.12 1020 10 16 N/A
7:15 am 07:15 Clear 15 -9.6 10 -12.1 82 82 N N/A 30.12 1020 10 16 N/A
7:35 am 07:35 Sunny 15 -9.7 10 -12.5 80 80 NW 5 7 30.12 1020 10 16 N/A
7:55 am 07:55 Sunny 16 -8.9 11 -11.5 82 82 NW 5 7 30.12 1020 10 16 N/A
8:15 am 08:15 Sunny 19 -7.5 13 -10.4 80 80 N N/A 30.09 1019 10 16 N/A
8:35 am 08:35 Sunny 20 -6.4 15 -9.6 78 78 WNW 3 6 30.12 1020 10 16 N/A
8:55 am 08:55 Sunny 23 -4.9 17 -8.2 78 78 N N/A 30.09 1019 10 16 N/A
9:15 am 09:15 Sunny 28 -2.5 19 -7.1 71 71 W 5 7 30.09 1019 10 16 N/A
9:35 am 09:35 Sunny 32 undefined 19 -7.5 57 57 W 10 17 30.06 1018 10 16 N/A
9:55 am 09:55 Sunny 34 1 19 -7.1 55 55 W 9 15 30.03 1017 10 16 N/A
10:15 am 10:15 Partly Cloudy 35 1.7 20 -6.6 54 54 W 12 19 30.06 1018 10 16 N/A
10:35 am 10:35 Partly Cloudy 38 3.2 19 -7.2 47 47 W 10 17 30.00 1016 10 16 N/A
10:55 am 10:55 Sunny 40 4.2 20 -6.8 45 45 WSW 10 17 30.03 1017 10 16 N/A
11:15 am 11:15 Sunny 39 4.1 23 -5.2 51 51 SW 16 26 30.03 1017 10 16 N/A
11:35 am 11:35 Sunny 40 4.2 20 -6.6 46 46 WSW 12 19 30.03 1017 10 16 N/A
11:55 am 11:55 Sunny 40 4.7 19 -7 43 43 WSW 9 15 30.03 1017 10 16 N/A
12:15 pm 12:15 Sunny 42 5.5 19 -7.5 39 39 W 13 20 30.03 1017 10 16 N/A
12:35 pm 12:35 Sunny 43 6 18 -7.7 37 37 WSW 14 22 30.00 1016 10 16 N/A
12:55 pm 12:55 Sunny 44 6.4 18 -7.9 35 35 W 16 26 29.97 1015 10 16 N/A
1:15 pm 13:15 Sunny 44 6.4 17 -8.6 34 34 WSW 12 19 29.97 1015 10 16 N/A
1:35 pm 13:35 Sunny 44 6.5 17 -8.5 34 34 WSW 16 26 29.97 1015 10 16 N/A
1:55 pm 13:55 Sunny 44 6.7 18 -7.9 35 35 W 17 28 29.97 1015 10 16 N/A
2:15 pm 14:15 Sunny 44 6.5 17 -8.4 34 34 W 16 26 29.97 1015 10 16 N/A
2:35 pm 14:35 Sunny 45 7 17 -8.1 34 34 W 17 28 29.97 1015 10 16 N/A
2:55 pm 14:55 Sunny 45 7 16 -9 31 31 W 20 31 29.97 1015 10 16 N/A
3:15 pm 15:15 Sunny 45 7.1 16 -8.8 32 32 W 18 30 29.97 1015 10 16 N/A
3:35 pm 15:35 Sunny 45 7.1 17 -8.6 32 32 W 14 22 29.97 1015 10 16 N/A
3:55 pm 15:55 Sunny 45 7.3 17 -8.4 32 32 W 16 26 29.97 1015 10 16 N/A
4:15 pm 16:15 Sunny 45 7.2 17 -8.3 33 33 W 16 26 29.97 1015 10 16 N/A
4:35 pm 16:35 Sunny 45 7 18 -7.8 34 34 W 15 24 29.97 1015 10 16 N/A
4:55 pm 16:55 Sunny 44 6.7 18 -7.9 35 35 W 14 22 30.00 1016 10 16 N/A
5:15 pm 17:15 Sunny 43 6.3 19 -7.4 37 37 W 10 17 30.03 1017 10 16 N/A
5:35 pm 17:35 Sunny 42 5.7 19 -7.1 40 40 W 9 15 30.03 1017 10 16 N/A
5:55 pm 17:55 Sunny 41 4.8 20 -6.4 44 44 W 7 11 30.03 1017 10 16 N/A
6:15 pm 18:15 Sunny 39 3.7 21 -5.9 50 50 WSW 5 7 30.03 1017 10 16 N/A
6:35 pm 18:35 Clear 37 2.7 21 -5.9 54 54 SW 5 7 30.06 1018 10 16 N/A
6:55 pm 18:55 Clear 35 1.7 21 -6 57 57 SSW 5 7 30.06 1018 10 16 N/A
7:15 pm 19:15 Clear 35 1.7 20 -6.4 55 55 SSW 3 6 30.09 1019 10 16 N/A
7:35 pm 19:35 Clear 34 1 22 -5.7 61 61 S 3 6 30.06 1018 10 16 N/A
7:55 pm 19:55 Clear 33 0.3 22 -5.5 65 65 S 5 7 30.12 1020 10 16 N/A
8:15 pm 20:15 Clear 33 0.3 22 -5.7 64 64 SW 3 6 30.12 1020 10 16 N/A
8:35 pm 20:35 Clear 32 undefined 21 -6.1 64 64 SW 3 6 30.12 1020 10 16 N/A
8:55 pm 20:55 Clear 31 -0.3 21 -6 66 66 N N/A 30.12 1020 10 16 N/A
9:15 pm 21:15 Clear 31 -0.6 22 -5.3 71 71 W 3 6 30.12 1020 10 16 N/A
9:35 pm 21:35 Clear 30 -1.2 23 -4.8 77 77 NNW 5 7 30.15 1021 10 16 N/A
9:55 pm 21:55 Clear 30 -1.3 23 -5.1 76 76 N N/A 30.15 1021 10 16 N/A
10:15 pm 22:15 Clear 30 -1 22 -5.3 73 73 W 3 6 30.15 1021 10 16 N/A
10:35 pm 22:35 Clear 28 -2.5 21 -5.9 78 78 SW 6 9 30.18 1022 10 16 N/A
10:55 pm 22:55 Clear 30 -1.2 21 -6.2 69 69 SW 7 11 30.15 1021 10 16 N/A
11:15 pm 23:15 Clear 31 -0.5 21 -6 67 67 SW 8 13 30.15 1021 10 16 N/A
11:35 pm 23:35 Clear 32 -0.1 21 -5.9 65 65 SW 8 13 30.15 1021 10 16 N/A
11:55 pm 23:55 Clear 30 -1 21 -6.1 69 69 SW 7 11 30.15 1021 10 16 N/A

Powered by AerisWeather